User: anonymous   Login
Location: Hepcat Sky Observatory
(29.9800°N, 95.6500°W)
Time: 21:52:13
(UTC-05:00)
Language:

ALOS - Orbit

View from above orbital plane
View from above orbital plane
View from above satellite
View from above satellite

Ground track
Ground track

The orbit data is extracted from the following two-line orbital elements,

1 28931U 06002A   17293.55690079 +.00000236 +00000-0 +55275-4 0  9993
2 28931 097.8364 314.5921 0000764 055.7435 304.3837 14.62409122625780
Epoch (UTC): 20 October 2017 13:21:56
Eccentricity: 0.0000764
inclination: 97.8364°
perigee height: 685 km
apogee height: 686 km
right ascension of ascending node: 314.5921°
argument of perigee: 55.7435°
revolutions per day: 14.62409122
mean anomaly at epoch: 304.3837°
orbit number at epoch: 62578

The dashed part of the orbit path shows where the satellite is in the earth's shadow,  

DLR